Location: Newark
(25.0000°N, 73.5000°E)
Time: 16:11:02
(UTC+00:00)

RS-15 - Pass Details

Date: 28 February 2020
Orbit: 1898 x 2146 km, 64.8° (Epoch: 04 April)

Event Time Altitude Azimuth Distance (km) Brightness Sun altitude
Rises 16:25:00 0° 274° (W) 5,320 11.1 -45.3°
Reaches altitude 10° 16:33:25 10° 312° (NW) 4,290 10.3 -47.1°
Maximum altitude 16:35:01 10° 321° (NW) 4,258 10.2 -47.5°
Drops below altitude 10° 16:36:36 10° 330° (NNW) 4,286 10.1 -47.8°
Sets 16:45:07 0° 9° (N) 5,295 10.4 -49.7°
